LUCH (OLYMP)

Last updated on Wed Apr 05 2023 00:02:46 GMT+0000 (Coordinated Universal Time)

1 40258U 14058A 23094.37059059 -.00000139 00000+0 00000+0 0 9995 2 40258 0.0387 69.8630 0000719 257.0930 340.7814 1.00273549 31208
UTC large
Height (km)
Speed (km/s)
/
Latitude / Longitude
Inclination (degrees)
Orbital Period (minutes)
Azimuth
Elevation
Range (km)
Doppler Factor

Next 0 passes for location: London (51.5072 / 0.1276)

Sorry there are no passes over London.